Weather History for KMQB - May, 2013

Change the Weather History Date:

Wednesday, May 15, 2013

  Actual Average (KBRL) Record (KBRL)
Temperature  
Mean Temperature 76 °F 63 °F  
Max Temperature 86 °F 74 °F 93 °F (1944)
Min Temperature 68 °F 53 °F 36 °F (1997)
Degree Days  
Heating Degree Days 0 4  
Month to date heating degree days 82  
Since 1 July heating degree days 5544  
Cooling Degree Days 12 2  
Month to date cooling degree days 23  
Year to date cooling degree days 43  
Growing Degree Days 26 (Base 50)    
Moisture  
Dew Point 55 °F    
Average Humidity 44    
Maximum Humidity 61    
Minimum Humidity 28    
Precipitation  
Precipitation 0.00 in 0.15 in 0.46 in (1958)
Month to date precipitation 2.39  
Year to date precipitation 11.80  
Sea Level Pressure  
Sea Level Pressure 29.85 in    
Wind  
Wind Speed 15 mph (West)    
Max Wind Speed 24 mph    
Max Gust Speed 31 mph    
Visibility 10 miles    
Events Thunderstorm    
T = Trace of Precipitation, MM = Missing Value Source: NWS Daily Summary

Daily Weather History Graph

Daily Weather History Graph

Search for Another Location

Airport or City:

Trip Planner

Search our weather history database for the weather conditions in past years. The results will help you decide how hot, cold, wet, or windy it might be!

Date:

Astronomy

May. 15, 2013 Rise Set
Actual Time 5:45 AM CDT 8:12 PM CDT
Civil Twilight 5:14 AM CDT 8:43 PM CDT
Nautical Twilight 4:36 AM CDT 9:22 PM CDT
Astronomical Twilight 3:53 AM CDT 10:05 PM CDT
Moon 10:21 AM CDT (5/15) No Moon Set
Length of Visible Light 15h 28m
Length of Day
14h 26m
Waxing Crescent, 27% of the Moon is Illuminated
May 15
Waxing Crescent
May 17
First Quarter
May 24
Full
May 31
Last Quarter
Jun 8
New

Hourly Weather History & Observations

Time (CDT) Temp. Heat Index Dew Point Humidity Pressure Visibility Wind Dir Wind Speed Gust Speed Precip Events Conditions
12:15 AM 79.7 °F - 54.5 °F 42% 29.78 in 10.0 mi WSW 23.0 mph 28.8 mph N/A   Clear
12:35 AM 79.2 °F - 55.0 °F 43% 29.78 in 10.0 mi WSW 24.2 mph 31.1 mph N/A   Clear
12:55 AM 78.8 °F - 55.6 °F 45% 29.78 in 10.0 mi WSW 23.0 mph 28.8 mph N/A   Clear
1:15 AM 78.3 °F - 55.8 °F 46% 29.79 in 10.0 mi WSW 20.7 mph 29.9 mph N/A   Clear
1:35 AM 77.9 °F - 55.9 °F 47% 29.80 in 10.0 mi WSW 21.9 mph 27.6 mph N/A   Clear
1:55 AM 77.9 °F - 55.8 °F 46% 29.80 in 10.0 mi WSW 21.9 mph 27.6 mph N/A   Clear
2:15 AM 77.0 °F - 55.9 °F 48% 29.81 in 10.0 mi WSW 21.9 mph 26.5 mph N/A   Clear
2:35 AM 76.5 °F - 56.3 °F 50% 29.82 in 10.0 mi WSW 19.6 mph 25.3 mph N/A   Clear
2:55 AM 77.0 °F - 57.2 °F 50% 29.82 in 10.0 mi WSW 19.6 mph 24.2 mph N/A   Clear
3:15 AM 76.1 °F - 56.5 °F 50% 29.82 in 10.0 mi WSW 21.9 mph 26.5 mph N/A   Clear
3:35 AM 76.1 °F - 56.5 °F 50% 29.83 in 10.0 mi WSW 18.4 mph - N/A   Clear
3:55 AM 75.4 °F - 56.3 °F 51% 29.83 in 10.0 mi WSW 19.6 mph 29.9 mph N/A   Clear
4:15 AM 74.8 °F - 56.3 °F 52% 29.83 in 10.0 mi WSW 17.3 mph - N/A   Clear
4:35 AM 74.3 °F - 55.9 °F 53% 29.84 in 10.0 mi WSW 15.0 mph 23.0 mph N/A   Clear
4:55 AM 73.4 °F - 55.8 °F 54% 29.85 in 10.0 mi West 15.0 mph - N/A   Clear
5:15 AM 72.5 °F - 55.9 °F 56% 29.85 in 10.0 mi West 13.8 mph - N/A   Clear
5:35 AM 71.1 °F - 55.9 °F 59% 29.86 in 10.0 mi WSW 11.5 mph - N/A   Clear
5:55 AM 71.2 °F - 55.6 °F 58% 29.86 in 10.0 mi WSW 11.5 mph - N/A   Clear
6:15 AM 71.6 °F - 55.4 °F 57% 29.86 in 10.0 mi WSW 10.4 mph - N/A   Clear
6:35 AM 71.2 °F - 55.4 °F 57% 29.87 in 10.0 mi WSW 10.4 mph - N/A   Clear
6:55 AM 72.7 °F - 55.4 °F 55% 29.87 in 10.0 mi WSW 11.5 mph - N/A   Clear
7:15 AM 73.4 °F - 55.6 °F 54% 29.87 in 10.0 mi WSW 11.5 mph - N/A   Clear
7:35 AM 75.2 °F - 55.4 °F 50% 29.87 in 10.0 mi WSW 13.8 mph - N/A   Clear
7:55 AM 75.4 °F - 56.3 °F 51% 29.86 in 10.0 mi WSW 15.0 mph 20.7 mph N/A   Clear
8:15 AM 76.6 °F - 56.3 °F 49% 29.87 in 10.0 mi WSW 16.1 mph - N/A   Clear
8:35 AM 77.9 °F - 56.3 °F 47% 29.88 in 10.0 mi WSW 15.0 mph 21.9 mph N/A   Clear
8:55 AM 79.2 °F - 55.8 °F 44% 29.87 in 10.0 mi West 18.4 mph 24.2 mph N/A   Clear
9:15 AM 80.1 °F 80.3 °F 56.1 °F 44% 29.88 in 10.0 mi WSW 18.4 mph - N/A   Clear
9:35 AM 81.0 °F 80.9 °F 56.5 °F 43% 29.88 in 10.0 mi West 18.4 mph - N/A   Clear
9:55 AM 81.7 °F 81.4 °F 56.7 °F 42% 29.88 in 10.0 mi West 19.6 mph - N/A   Clear
10:15 AM 81.7 °F 81.4 °F 56.3 °F 42% 29.88 in 10.0 mi West 15.0 mph 21.9 mph N/A   Clear
10:35 AM 81.3 °F 81.1 °F 56.5 °F 42% 29.88 in 10.0 mi West 17.3 mph 24.2 mph N/A   Clear
10:55 AM 81.9 °F 81.6 °F 56.8 °F 42% 29.89 in 10.0 mi West 16.1 mph 24.2 mph N/A   Clear
11:15 AM 81.7 °F 81.5 °F 57.2 °F 43% 29.88 in 10.0 mi WNW 15.0 mph - N/A   Clear
11:35 AM 82.8 °F 82.1 °F 56.3 °F 40% 29.88 in 10.0 mi West 15.0 mph 19.6 mph N/A   Clear
11:55 AM 83.3 °F 82.8 °F 57.0 °F 41% 29.88 in 10.0 mi West 9.2 mph 18.4 mph N/A   Clear
12:15 PM 83.5 °F 82.8 °F 56.5 °F 40% 29.88 in 10.0 mi West 10.4 mph 20.7 mph N/A   Clear
12:35 PM 84.0 °F 83.2 °F 56.7 °F 39% 29.88 in 10.0 mi WNW 8.1 mph 18.4 mph N/A   Clear
12:55 PM 84.6 °F 83.5 °F 56.7 °F 38% 29.88 in 10.0 mi West 9.2 mph - N/A   Scattered Clouds
1:15 PM 85.6 °F 84.3 °F 55.9 °F 36% 29.88 in 10.0 mi WSW 8.1 mph 17.3 mph N/A   Clear
1:35 PM 84.9 °F 84.1 °F 57.2 °F 39% 29.88 in 10.0 mi NW 8.1 mph 19.6 mph N/A   Clear
1:55 PM 85.8 °F 84.7 °F 56.8 °F 37% 29.87 in 10.0 mi WNW 6.9 mph - N/A   Clear
2:15 PM 84.6 °F 83.7 °F 57.0 °F 39% 29.87 in 10.0 mi NW 10.4 mph - N/A   Clear
2:35 PM 84.6 °F 83.7 °F 57.2 °F 39% 29.87 in 10.0 mi WNW 11.5 mph 16.1 mph N/A   Clear
2:55 PM 84.6 °F 83.5 °F 56.7 °F 38% 29.86 in 10.0 mi NW 9.2 mph - N/A   Clear
3:15 PM 84.7 °F 83.6 °F 56.1 °F 37% 29.86 in 10.0 mi WNW 9.2 mph - N/A   Clear
3:35 PM 84.4 °F 83.4 °F 56.5 °F 38% 29.86 in 10.0 mi NW 9.2 mph - N/A   Clear
3:55 PM 84.2 °F 83.2 °F 56.1 °F 38% 29.86 in 10.0 mi West 11.5 mph - N/A   Clear
4:15 PM 84.6 °F 83.1 °F 54.3 °F 35% 29.85 in 10.0 mi WNW 10.4 mph - N/A   Clear
4:35 PM 84.6 °F - 52.2 °F 33% 29.85 in 10.0 mi Calm Calm - N/A   Clear
4:55 PM 85.6 °F - 49.5 °F 29% 29.84 in 10.0 mi SW 5.8 mph - N/A   Clear
5:15 PM 84.7 °F - 51.1 °F 31% 29.84 in 10.0 mi SSW 5.8 mph - N/A   Clear
5:35 PM 85.3 °F - 52.0 °F 32% 29.84 in 10.0 mi WSW 5.8 mph - N/A   Clear
5:55 PM 84.4 °F - 52.5 °F 33% 29.84 in 10.0 mi WSW 6.9 mph - N/A   Clear
6:15 PM 85.1 °F - 48.7 °F 28% 29.84 in 7.0 mi West 5.8 mph - N/A   Clear
6:35 PM 84.6 °F - 50.0 °F 30% 29.84 in 10.0 mi WSW 4.6 mph - N/A   Clear
6:55 PM 83.8 °F - 50.4 °F 31% 29.84 in 10.0 mi WSW 3.5 mph - N/A   Clear
7:15 PM 82.2 °F - 51.4 °F 34% 29.84 in 10.0 mi NW 8.1 mph - N/A   Clear
7:35 PM 80.2 °F - 49.5 °F 34% 29.84 in 10.0 mi NNW 4.6 mph - N/A   Clear
7:55 PM 79.0 °F - 50.9 °F 37% 29.84 in 10.0 mi NNW 5.8 mph - N/A   Scattered Clouds
8:15 PM 76.8 °F - 53.2 °F 44% 29.85 in 10.0 mi NNW 5.8 mph - N/A   Scattered Clouds
8:35 PM 76.8 °F - 49.6 °F 38% 29.85 in 10.0 mi North 3.5 mph - N/A   Clear
8:55 PM 75.2 °F - 50.7 °F 42% 29.85 in 10.0 mi North 3.5 mph - N/A   Clear
9:15 PM 74.3 °F - 50.4 °F 43% 29.86 in 10.0 mi North 4.6 mph - N/A   Clear
9:35 PM 73.0 °F - 51.3 °F 46% 29.86 in 10.0 mi North 5.8 mph - N/A   Clear
9:55 PM 72.1 °F - 51.4 °F 48% 29.87 in 10.0 mi North 4.6 mph - N/A   Clear
10:15 PM 71.6 °F - 51.8 °F 50% 29.86 in 10.0 mi North 4.6 mph - N/A   Clear
10:35 PM 70.7 °F - 53.2 °F 54% 29.86 in 10.0 mi North 3.5 mph - N/A   Clear
10:55 PM 69.8 °F - 52.7 °F 54% 29.86 in 10.0 mi North 3.5 mph - N/A   Clear
11:15 PM 69.1 °F - 52.9 °F 56% 29.86 in 10.0 mi Calm Calm - N/A   Clear
11:35 PM 68.5 °F - 52.7 °F 57% 29.85 in 10.0 mi Calm Calm - N/A Thunderstorm Thunderstorm
11:55 PM 68.0 °F - 54.1 °F 61% 29.87 in 10.0 mi Calm Calm - N/A Thunderstorm Thunderstorm